NORTHEAST SUFFOLK  -  Winter Weather Advisory Winter Weather Advisory        NORTHERN NASSAU  -  Winter Weather Advisory Winter Weather Advisory        NORTHWEST SUFFOLK  -  Winter Weather Advisory Winter Weather Advisory        SOUTHEAST SUFFOLK  -  Winter Weather Advisory Winter Weather Advisory        SOUTHERN NASSAU  -  Winter Weather Advisory Winter Weather Advisory        SOUTHWEST SUFFOLK  -  Winter Weather Advisory Winter Weather Advisory      

Active alerts

Northern Nassau
  Details for Northern Nassau Winter Weather Advisory
Southern Nassau
  Details for Southern Nassau Winter Weather Advisory
Northwest Suffolk
  Details for Northwest Suffolk Winter Weather Advisory
Southwest Suffolk
  Details for Southwest Suffolk Winter Weather Advisory
Northeast Suffolk
  Details for Northeast Suffolk Winter Weather Advisory
Southeast Suffolk
  Details for Southeast Suffolk Winter Weather Advisory


WXM80 ListenWXM80 Stop

You find our weather info also at:

UK Metoffice

WeatherCloud

Weather Underground

Northeastern Weather Network

AWEKAS

Citizen Weather Observer Program (CWOP)

HAMweather, WeatherForYou, PWS Weather


Weather Underground History page Text

Daily Summary for June 20, 2016 Units:  English    Metric   Both
« Previous Day
Next Day »
Daily Weekly Monthly Yearly Custom
  High: Low: Average:
Temperature: 84.2 °F 58.7 °F 71.3 °F
Dew Point: 70.7 °F 56.6 °F 63 °F
Humidity: 97 % 55 % 77 %
Wind Speed: 6.4 mph 0.0 mph 1.2 mph
Wind Gust: 16.1 mph - -
Wind:- - SSE
Pressure: 30.24 in 29.83 in -
Precipitation: 0.00 in    
Historical Graphs
 
 
Tabular Data for June 20, 2016
Time Temperature Dew Point Pressure Wind Wind Speed Wind Gust Humidity Rainfall Rate (Hourly)
00:04 62.5 °F 58.3 °F 30.24 in Calm     86 % 0.00 in
00:10 62.3 °F 58.1 °F 30.23 in Calm     86 % 0.00 in
00:15 62.3 °F 58.1 °F 30.23 in Calm     86 % 0.00 in
00:20 62.2 °F 58.0 °F 30.23 in Calm     86 % 0.00 in
00:25 62.0 °F 58.1 °F 30.23 in Calm     87 % 0.00 in
00:30 62.0 °F 58.1 °F 30.23 in Calm     87 % 0.00 in
00:35 61.8 °F 57.9 °F 30.22 in Calm     87 % 0.00 in
00:40 61.7 °F 57.8 °F 30.22 in Calm     87 % 0.00 in
00:45 61.6 °F 58.0 °F 30.22 in Calm     88 % 0.00 in
00:50 61.6 °F 58.0 °F 30.22 in Calm     88 % 0.00 in
00:55 61.4 °F 57.5 °F 30.22 in Calm     87 % 0.00 in
01:01 61.3 °F 57.7 °F 30.22 in Calm     88 % 0.00 in
01:06 61.2 °F 57.6 °F 30.21 in Calm     88 % 0.00 in
01:11 61.1 °F 57.5 °F 30.21 in Calm     88 % 0.00 in
01:21 61.0 °F 57.4 °F 30.21 in Calm     88 % 0.00 in
01:26 60.9 °F 57.3 °F 30.22 in Calm     88 % 0.00 in
01:31 60.8 °F 57.2 °F 30.21 in Calm     88 % 0.00 in
01:36 60.8 °F 57.5 °F 30.21 in Calm     89 % 0.00 in
01:41 60.7 °F 57.4 °F 30.21 in Calm     89 % 0.00 in
01:46 60.7 °F 57.4 °F 30.21 in Calm     89 % 0.00 in
01:52 60.7 °F 57.4 °F 30.21 in Calm     89 % 0.00 in
01:57 60.6 °F 57.7 °F 30.21 in Calm     90 % 0.00 in
02:02 60.5 °F 57.6 °F 30.21 in Calm     90 % 0.00 in
02:07 60.5 °F 57.6 °F 30.21 in Calm     90 % 0.00 in
02:12 60.4 °F 57.5 °F 30.21 in Calm     90 % 0.00 in
02:17 60.3 °F 57.4 °F 30.21 in Calm     90 % 0.00 in
02:22 60.2 °F 57.3 °F 30.21 in Calm     90 % 0.00 in
02:27 60.2 °F 57.3 °F 30.20 in Calm     90 % 0.00 in
02:32 60.1 °F 57.2 °F 30.20 in Calm     90 % 0.00 in
02:37 60.0 °F 57.1 °F 30.20 in Calm     90 % 0.00 in
02:43 60.0 °F 57.4 °F 30.19 in Calm     91 % 0.00 in
02:48 59.9 °F 57.3 °F 30.19 in Calm     91 % 0.00 in
02:53 59.8 °F 57.2 °F 30.19 in Calm     91 % 0.00 in
02:58 59.8 °F 57.2 °F 30.19 in Calm     91 % 0.00 in
03:03 59.7 °F 57.1 °F 30.19 in Calm   1.2 mph 91 % 0.00 in
03:08 59.7 °F 57.1 °F 30.19 in Calm     91 % 0.00 in
03:13 59.6 °F 57.0 °F 30.19 in Calm     91 % 0.00 in
03:18 59.6 °F 57.0 °F 30.19 in Calm     91 % 0.00 in
03:23 59.5 °F 56.9 °F 30.19 in Calm     91 % 0.00 in
03:28 59.5 °F 56.9 °F 30.18 in Calm     91 % 0.00 in
03:34 59.4 °F 56.8 °F 30.18 in Calm     91 % 0.00 in
03:39 59.4 °F 56.8 °F 30.18 in Calm     91 % 0.00 in
03:44 59.3 °F 56.7 °F 30.19 in Calm     91 % 0.00 in
03:49 59.3 °F 56.7 °F 30.19 in Calm     91 % 0.00 in
03:54 59.3 °F 57.0 °F 30.19 in Calm     92 % 0.00 in
03:59 59.3 °F 57.0 °F 30.19 in Calm     92 % 0.00 in
04:04 59.3 °F 57.0 °F 30.19 in Calm     92 % 0.00 in
04:09 59.3 °F 57.0 °F 30.19 in Calm     92 % 0.00 in
04:14 59.3 °F 57.3 °F 30.19 in Calm     93 % 0.00 in
04:20 59.3 °F 57.3 °F 30.19 in Calm     93 % 0.00 in
04:25 59.3 °F 57.3 °F 30.19 in Calm     93 % 0.00 in
04:30 59.3 °F 57.3 °F 30.19 in Calm     93 % 0.00 in
04:35 59.3 °F 57.3 °F 30.19 in Calm     93 % 0.00 in
04:40 59.2 °F 57.2 °F 30.19 in Calm     93 % 0.00 in
04:45 59.2 °F 57.2 °F 30.19 in Calm     93 % 0.00 in
04:50 59.2 °F 57.2 °F 30.19 in Calm     93 % 0.00 in
04:55 59.1 °F 57.1 °F 30.19 in Calm     93 % 0.00 in
05:00 59.1 °F 57.1 °F 30.19 in Calm     93 % 0.00 in
05:05 59.1 °F 57.1 °F 30.19 in Calm     93 % 0.00 in
05:11 59.0 °F 57.0 °F 30.19 in Calm     93 % 0.00 in
05:16 59.0 °F 57.0 °F 30.19 in Calm     93 % 0.00 in
05:21 58.9 °F 56.9 °F 30.19 in Calm     93 % 0.00 in
05:26 58.9 °F 56.6 °F 30.19 in Calm     92 % 0.00 in
05:31 58.9 °F 56.9 °F 30.19 in Calm     93 % 0.00 in
05:36 58.9 °F 56.9 °F 30.19 in Calm     93 % 0.00 in
05:41 58.8 °F 56.8 °F 30.19 in Calm     93 % 0.00 in
05:46 58.8 °F 56.8 °F 30.19 in Calm     93 % 0.00 in
05:51 58.7 °F 56.7 °F 30.19 in Calm     93 % 0.00 in
05:56 58.8 °F 56.8 °F 30.20 in Calm     93 % 0.00 in
06:02 58.8 °F 56.8 °F 30.19 in Calm     93 % 0.00 in
06:07 58.9 °F 57.2 °F 30.19 in Calm     94 % 0.00 in
06:12 59.0 °F 57.3 °F 30.19 in Calm     94 % 0.00 in
06:17 59.1 °F 57.4 °F 30.19 in Calm     94 % 0.00 in
06:22 59.3 °F 57.9 °F 30.19 in Calm     95 % 0.00 in
06:27 59.5 °F 58.1 °F 30.19 in Calm     95 % 0.00 in
06:32 60.2 °F 59.1 °F 30.19 in Calm     96 % 0.00 in
06:37 60.8 °F 59.7 °F 30.18 in Calm     96 % 0.00 in
06:42 61.1 °F 60.0 °F 30.18 in Calm     96 % 0.00 in
06:47 61.2 °F 60.1 °F 30.19 in Calm     96 % 0.00 in
06:53 62.0 °F 61.1 °F 30.19 in Calm     97 % 0.00 in
06:58 62.7 °F 61.8 °F 30.18 in Calm     97 % 0.00 in
07:03 63.4 °F 62.5 °F 30.18 in Calm     97 % 0.00 in
07:08 64.1 °F 63.2 °F 30.19 in Calm     97 % 0.00 in
07:13 64.7 °F 63.8 °F 30.18 in Calm     97 % 0.00 in
07:18 65.6 °F 64.4 °F 30.18 in Calm     96 % 0.00 in
07:23 66.4 °F 65.2 °F 30.17 in Calm     96 % 0.00 in
07:28 67.0 °F 65.2 °F 30.18 in Calm   1.2 mph 94 % 0.00 in
07:33 67.7 °F 65.6 °F 30.18 in Calm     93 % 0.00 in
07:38 68.1 °F 65.7 °F 30.18 in Calm     92 % 0.00 in
07:44 68.3 °F 65.3 °F 30.18 in SE 0.7 mph 1.2 mph 90 % 0.00 in
07:49 68.4 °F 65.0 °F 30.18 in SE 0.7 mph 2.3 mph 89 % 0.00 in
07:54 68.5 °F 64.5 °F 30.18 in SW 1.0 mph 2.3 mph 87 % 0.00 in
07:59 68.6 °F 64.6 °F 30.19 in NE 0.9 mph 2.3 mph 87 % 0.00 in
08:04 68.8 °F 64.8 °F 30.18 in NNE 1.1 mph 2.3 mph 87 % 0.00 in
08:09 68.8 °F 64.8 °F 30.18 in NNE 2.0 mph 3.5 mph 87 % 0.00 in
08:14 68.8 °F 64.1 °F 30.17 in North 1.9 mph 3.5 mph 85 % 0.00 in
08:24 68.8 °F 64.4 °F 30.17 in NNE 0.6 mph 2.3 mph 86 % 0.00 in
08:29 68.9 °F 64.5 °F 30.17 in North 3.7 mph 4.6 mph 86 % 0.00 in
08:35 68.9 °F 64.9 °F 30.17 in North 2.7 mph 3.5 mph 87 % 0.00 in
08:40 69.1 °F 64.7 °F 30.17 in North 2.4 mph 3.5 mph 86 % 0.00 in
08:45 69.4 °F 65.4 °F 30.17 in North 1.8 mph 3.5 mph 87 % 0.00 in
08:50 69.5 °F 64.8 °F 30.17 in North 1.1 mph 3.5 mph 85 % 0.00 in
08:55 69.6 °F 64.5 °F 30.17 in North 3.5 mph 5.0 mph 84 % 0.00 in
09:00 69.7 °F 65.0 °F 30.17 in ENE 2.4 mph 3.5 mph 85 % 0.00 in
09:05 69.8 °F 64.7 °F 30.17 in ENE 2.2 mph 3.5 mph 84 % 0.00 in
09:10 69.9 °F 64.8 °F 30.17 in North 2.3 mph 3.5 mph 84 % 0.00 in
09:15 70.0 °F 65.3 °F 30.17 in North 2.2 mph 5.8 mph 85 % 0.00 in
09:20 70.1 °F 65.4 °F 30.17 in North 2.3 mph 3.5 mph 85 % 0.00 in
09:26 70.2 °F 65.1 °F 30.17 in North 2.1 mph 5.8 mph 84 % 0.00 in
09:31 70.4 °F 65.3 °F 30.16 in ENE 1.5 mph 3.5 mph 84 % 0.00 in
09:36 70.7 °F 66.0 °F 30.16 in North 4.1 mph 4.6 mph 85 % 0.00 in
09:41 71.0 °F 66.3 °F 30.16 in North 2.4 mph 3.5 mph 85 % 0.00 in
09:46 71.3 °F 65.9 °F 30.16 in North 2.1 mph 4.0 mph 83 % 0.00 in
09:51 72.0 °F 66.6 °F 30.15 in NNE 2.1 mph 4.6 mph 83 % 0.00 in
09:56 72.8 °F 66.6 °F 30.15 in North 3.4 mph 4.6 mph 81 % 0.00 in
10:01 73.5 °F 66.9 °F 30.15 in NNE 1.6 mph 4.0 mph 80 % 0.00 in
10:06 74.5 °F 67.6 °F 30.15 in NNE 3.3 mph 3.5 mph 79 % 0.00 in
10:11 75.6 °F 68.6 °F 30.15 in North 0.8 mph 3.5 mph 79 % 0.00 in
10:17 76.6 °F 68.8 °F 30.15 in North 3.8 mph 5.0 mph 77 % 0.00 in
10:22 77.4 °F 68.1 °F 30.15 in North 3.6 mph 4.6 mph 73 % 0.00 in
10:27 78.0 °F 68.6 °F 30.14 in North 1.8 mph 3.5 mph 73 % 0.00 in
10:32 78.8 °F 69.8 °F 30.14 in North 0.9 mph 2.3 mph 74 % 0.00 in
10:37 79.5 °F 69.3 °F 30.14 in North 2.6 mph 3.5 mph 71 % 0.00 in
10:42 80.1 °F 69.8 °F 30.14 in NNW 0.8 mph 2.3 mph 71 % 0.00 in
10:47 80.5 °F 68.5 °F 30.14 in WNW 1.4 mph 3.5 mph 67 % 0.00 in
10:52 81.1 °F 69.5 °F 30.13 in NNE 3.3 mph 6.0 mph 68 % 0.00 in
10:57 81.2 °F 68.8 °F 30.13 in North 2.0 mph 3.0 mph 66 % 0.00 in
11:02 81.5 °F 69.5 °F 30.13 in ENE 1.1 mph 3.0 mph 67 % 0.00 in
11:08 81.7 °F 69.2 °F 30.13 in NNE 1.6 mph 3.5 mph 66 % 0.00 in
11:13 82.1 °F 69.6 °F 30.13 in NNE 1.3 mph 3.5 mph 66 % 0.00 in
11:18 82.3 °F 69.4 °F 30.13 in NW 1.9 mph 5.8 mph 65 % 0.00 in
11:23 82.5 °F 70.0 °F 30.13 in North 1.9 mph 3.5 mph 66 % 0.00 in
11:28 83.0 °F 69.1 °F 30.12 in North 2.7 mph 4.6 mph 63 % 0.00 in
11:33 83.2 °F 69.8 °F 30.13 in North 2.6 mph 3.5 mph 64 % 0.00 in
11:38 83.4 °F 69.0 °F 30.12 in North 1.2 mph 2.3 mph 62 % 0.00 in
11:43 83.6 °F 69.7 °F 30.13 in NW 0.6 mph 1.2 mph 63 % 0.00 in
11:48 83.6 °F 69.2 °F 30.12 in North 1.6 mph 3.5 mph 62 % 0.00 in
11:53 83.7 °F 70.7 °F 30.12 in North 0.1 mph 2.3 mph 65 % 0.00 in
11:59 83.5 °F 69.1 °F 30.11 in SE 1.7 mph 6.9 mph 62 % 0.00 in
12:04 82.7 °F 66.4 °F 30.11 in SSE 0.7 mph 3.5 mph 58 % 0.00 in
12:09 82.3 °F 67.0 °F 30.11 in SSE 1.0 mph 3.5 mph 60 % 0.00 in
12:14 81.7 °F 66.0 °F 30.11 in SSE 3.6 mph 9.2 mph 59 % 0.00 in
12:19 80.8 °F 65.6 °F 30.11 in SE 2.0 mph 6.0 mph 60 % 0.00 in
12:24 79.9 °F 65.7 °F 30.10 in SE 3.5 mph 5.8 mph 62 % 0.00 in
12:34 80.2 °F 67.4 °F 30.10 in South 1.9 mph 6.0 mph 65 % 0.00 in
12:39 80.6 °F 66.4 °F 30.10 in SSW 0.9 mph 3.5 mph 62 % 0.00 in
12:44 81.3 °F 67.5 °F 30.09 in SSW 2.2 mph 3.5 mph 63 % 0.00 in
12:55 82.8 °F 68.9 °F 30.09 in South 2.9 mph 4.6 mph 63 % 0.00 in
13:00 82.4 °F 65.6 °F 30.09 in South 1.2 mph 2.3 mph 57 % 0.00 in
13:05 81.7 °F 66.9 °F 30.09 in SSW 2.2 mph 5.8 mph 61 % 0.00 in
13:10 81.9 °F 66.6 °F 30.08 in SW 4.9 mph 8.1 mph 60 % 0.00 in
13:15 82.5 °F 67.7 °F 30.09 in SSW 4.7 mph 9.2 mph 61 % 0.00 in
13:20 83.4 °F 68.5 °F 30.08 in WSW 0.3 mph 2.3 mph 61 % 0.00 in
13:25 84.2 °F 67.8 °F 30.08 in SSW 0.7 mph 3.5 mph 58 % 0.00 in
13:30 83.9 °F 66.5 °F 30.07 in SE 2.0 mph 4.0 mph 56 % 0.00 in
13:35 84.2 °F 68.3 °F 30.07 in SSE 1.3 mph 4.6 mph 59 % 0.00 in
13:41 83.9 °F 67.5 °F 30.07 in SSE 0.8 mph 3.5 mph 58 % 0.00 in
13:46 83.8 °F 66.9 °F 30.07 in WSW 3.1 mph 4.6 mph 57 % 0.00 in
13:51 84.2 °F 67.8 °F 30.07 in SE 1.7 mph 4.0 mph 58 % 0.00 in
13:56 83.9 °F 67.0 °F 30.06 in SSW 2.4 mph 4.0 mph 57 % 0.00 in
14:01 83.6 °F 65.7 °F 30.06 in SSE 1.5 mph 3.5 mph 55 % 0.00 in
14:06 82.7 °F 66.4 °F 30.06 in SW 1.9 mph 3.5 mph 58 % 0.00 in
14:11 82.9 °F 67.1 °F 30.06 in SSW 1.7 mph 5.0 mph 59 % 0.00 in
14:16 83.0 °F 65.7 °F 30.06 in SE 3.4 mph 8.1 mph 56 % 0.00 in
14:21 82.6 °F 67.3 °F 30.05 in SSE 1.2 mph 4.6 mph 60 % 0.00 in
14:26 83.1 °F 67.3 °F 30.05 in West 1.2 mph 6.9 mph 59 % 0.00 in
14:32 83.3 °F 67.0 °F 30.04 in SSE 1.1 mph 3.5 mph 58 % 0.00 in
14:37 83.0 °F 66.7 °F 30.04 in SSE 1.7 mph 3.5 mph 58 % 0.00 in
14:42 82.7 °F 65.9 °F 30.04 in SSE 2.5 mph 11.5 mph 57 % 0.00 in
14:47 82.1 °F 64.8 °F 30.04 in SSW 0.9 mph 3.0 mph 56 % 0.00 in
14:52 82.1 °F 67.3 °F 30.03 in SSE 2.3 mph 5.8 mph 61 % 0.00 in
14:57 82.4 °F 65.6 °F 30.03 in SW 3.4 mph 9.0 mph 57 % 0.00 in
15:02 82.7 °F 66.9 °F 30.03 in ESE 0.2 mph 1.2 mph 59 % 0.00 in
15:07 82.1 °F 66.4 °F 30.03 in SE 6.3 mph 11.5 mph 59 % 0.00 in
15:12 81.4 °F 65.2 °F 30.03 in SSW 2.0 mph 4.6 mph 58 % 0.00 in
15:17 81.0 °F 65.8 °F 30.03 in SSE 2.3 mph 5.8 mph 60 % 0.00 in
15:22 80.9 °F 65.7 °F 30.02 in South 2.6 mph 8.1 mph 60 % 0.00 in
15:28 80.8 °F 64.6 °F 30.02 in ESE 6.4 mph 16.1 mph 58 % 0.00 in
15:33 80.1 °F 64.5 °F 30.02 in SSE 1.2 mph 5.8 mph 59 % 0.00 in
15:38 80.1 °F 65.4 °F 30.01 in SSW 2.2 mph 4.0 mph 61 % 0.00 in
15:43 80.3 °F 65.1 °F 30.01 in SSE 4.3 mph 10.4 mph 60 % 0.00 in
15:48 79.8 °F 64.7 °F 30.00 in SSW 3.3 mph 9.0 mph 60 % 0.00 in
15:53 79.6 °F 64.5 °F 30.01 in SSE 1.0 mph 3.5 mph 60 % 0.00 in
15:58 79.7 °F 65.1 °F 30.00 in SSE 2.1 mph 11.5 mph 61 % 0.00 in
16:03 79.7 °F 65.1 °F 30.00 in SE 3.6 mph 9.0 mph 61 % 0.00 in
16:08 79.6 °F 64.5 °F 30.00 in South 3.0 mph 4.6 mph 60 % 0.00 in
16:13 79.2 °F 64.1 °F 30.00 in SSE 2.4 mph 5.0 mph 60 % 0.00 in
16:19 79.2 °F 64.1 °F 29.99 in South 1.9 mph 3.5 mph 60 % 0.00 in
16:24 79.2 °F 64.6 °F 29.99 in SSW 1.8 mph 4.0 mph 61 % 0.00 in
16:34 79.3 °F 65.6 °F 29.99 in SSW 1.9 mph 3.5 mph 63 % 0.00 in
16:39 79.5 °F 65.8 °F 29.99 in SSE 1.5 mph 4.0 mph 63 % 0.00 in
16:44 79.4 °F 64.3 °F 29.99 in SSW 1.0 mph 4.0 mph 60 % 0.00 in
16:49 78.9 °F 64.3 °F 29.98 in SSE 4.3 mph 9.2 mph 61 % 0.00 in
16:54 78.7 °F 65.0 °F 29.97 in SSW 2.1 mph 3.5 mph 63 % 0.00 in
16:59 78.3 °F 64.2 °F 29.97 in South 4.3 mph 11.5 mph 62 % 0.00 in
17:04 77.7 °F 64.1 °F 29.98 in SSE 3.9 mph 10.4 mph 63 % 0.00 in
17:10 77.2 °F 64.5 °F 29.97 in ESE 2.5 mph 6.0 mph 65 % 0.00 in
17:15 76.9 °F 64.2 °F 29.97 in SSE 1.5 mph 10.4 mph 65 % 0.00 in
17:20 77.0 °F 64.8 °F 29.97 in WSW 1.2 mph 5.8 mph 66 % 0.00 in
17:25 77.1 °F 64.0 °F 29.96 in SSW 5.2 mph 10.4 mph 64 % 0.00 in
17:30 77.3 °F 64.6 °F 29.96 in SW 1.4 mph 4.0 mph 65 % 0.00 in
17:35 77.2 °F 64.1 °F 29.96 in South 1.0 mph 3.5 mph 64 % 0.00 in
17:40 77.2 °F 64.5 °F 29.95 in SE 0.7 mph 3.0 mph 65 % 0.00 in
17:45 77.1 °F 64.0 °F 29.95 in SSW 0.6 mph 3.5 mph 64 % 0.00 in
17:50 77.0 °F 63.9 °F 29.95 in South 3.5 mph 5.0 mph 64 % 0.00 in
17:55 76.7 °F 64.0 °F 29.95 in SSE 1.4 mph 2.3 mph 65 % 0.00 in
18:01 76.7 °F 64.0 °F 29.95 in WSW 2.1 mph 5.0 mph 65 % 0.00 in
18:06 76.7 °F 64.0 °F 29.95 in SSE 0.9 mph 4.0 mph 65 % 0.00 in
18:11 76.7 °F 64.0 °F 29.94 in SE 1.3 mph 5.0 mph 65 % 0.00 in
18:16 76.6 °F 64.0 °F 29.94 in SSE 2.0 mph 3.5 mph 65 % 0.00 in
18:21 76.6 °F 64.0 °F 29.94 in South 0.9 mph 3.5 mph 65 % 0.00 in
18:26 76.6 °F 64.0 °F 29.94 in WSW 1.3 mph 3.5 mph 65 % 0.00 in
18:31 76.6 °F 63.5 °F 29.94 in WSW 3.9 mph 6.0 mph 64 % 0.00 in
18:36 76.5 °F 63.4 °F 29.94 in SE 1.5 mph 4.6 mph 64 % 0.00 in
18:41 76.4 °F 63.8 °F 29.94 in WSW 2.8 mph 4.6 mph 65 % 0.00 in
18:46 76.4 °F 63.8 °F 29.94 in South 2.6 mph 3.5 mph 65 % 0.00 in
18:52 76.3 °F 63.7 °F 29.94 in SW 2.8 mph 10.4 mph 65 % 0.00 in
18:57 76.2 °F 63.6 °F 29.94 in West 3.5 mph 8.1 mph 65 % 0.00 in
19:02 76.1 °F 63.9 °F 29.93 in SSE 0.6 mph 2.3 mph 66 % 0.00 in
19:07 75.9 °F 63.7 °F 29.93 in SW 1.0 mph 2.3 mph 66 % 0.00 in
19:12 75.8 °F 63.6 °F 29.93 in SSE 0.4 mph 2.3 mph 66 % 0.00 in
19:17 75.7 °F 64.0 °F 29.92 in SW 0.7 mph 3.5 mph 67 % 0.00 in
19:22 75.6 °F 63.4 °F 29.93 in SSW 0.6 mph 1.2 mph 66 % 0.00 in
19:27 75.5 °F 63.3 °F 29.92 in WSW 1.9 mph 7.0 mph 66 % 0.00 in
19:32 75.3 °F 63.6 °F 29.92 in SSW 0.4 mph 4.6 mph 67 % 0.00 in
19:37 75.2 °F 63.9 °F 29.92 in Calm   2.3 mph 68 % 0.00 in
19:43 75.0 °F 63.7 °F 29.92 in SE 0.1 mph 1.2 mph 68 % 0.00 in
19:48 74.8 °F 63.5 °F 29.91 in SW 0.5 mph 5.8 mph 68 % 0.00 in
19:53 74.6 °F 63.3 °F 29.91 in SSE 0.5 mph 3.5 mph 68 % 0.00 in
19:58 74.3 °F 63.5 °F 29.90 in SE 1.4 mph 5.0 mph 69 % 0.00 in
20:03 74.0 °F 63.6 °F 29.90 in SSW 0.4 mph 2.3 mph 70 % 0.00 in
20:08 73.7 °F 63.3 °F 29.90 in SSW 0.4 mph 2.3 mph 70 % 0.00 in
20:13 73.4 °F 63.4 °F 29.90 in SSE 1.5 mph 2.3 mph 71 % 0.00 in
20:18 73.1 °F 63.5 °F 29.90 in SSE 0.4 mph 2.3 mph 72 % 0.00 in
20:24 73.0 °F 63.4 °F 29.90 in ESE 0.5 mph 2.3 mph 72 % 0.00 in
20:29 72.8 °F 63.6 °F 29.89 in SSW 0.7 mph 3.5 mph 73 % 0.00 in
20:34 72.7 °F 63.5 °F 29.89 in Calm   3.5 mph 73 % 0.00 in
20:39 72.5 °F 63.7 °F 29.89 in SE 0.4 mph 2.3 mph 74 % 0.00 in
20:44 72.3 °F 63.5 °F 29.90 in SSE 0.6 mph 1.2 mph 74 % 0.00 in
20:49 72.1 °F 63.7 °F 29.90 in SE 1.2 mph 2.3 mph 75 % 0.00 in
20:54 71.8 °F 63.4 °F 29.89 in SE 0.8 mph 3.5 mph 75 % 0.00 in
20:59 71.7 °F 63.7 °F 29.89 in SSE 2.1 mph 4.6 mph 76 % 0.00 in
21:04 71.5 °F 63.5 °F 29.89 in SSE 0.7 mph 2.3 mph 76 % 0.00 in
21:15 71.3 °F 63.3 °F 29.89 in SSE 0.3 mph 2.3 mph 76 % 0.00 in
21:20 71.3 °F 63.3 °F 29.89 in SSE 1.3 mph 4.6 mph 76 % 0.00 in
21:25 71.3 °F 63.3 °F 29.89 in SSW 1.4 mph 3.5 mph 76 % 0.00 in
21:30 71.3 °F 63.3 °F 29.89 in SSE 1.6 mph 3.5 mph 76 % 0.00 in
21:35 71.3 °F 63.3 °F 29.88 in SSE 1.8 mph 3.5 mph 76 % 0.00 in
21:40 71.4 °F 63.4 °F 29.88 in SSE 1.8 mph 3.5 mph 76 % 0.00 in
21:45 71.4 °F 63.4 °F 29.88 in South 0.9 mph 3.5 mph 76 % 0.00 in
21:50 71.5 °F 63.2 °F 29.88 in SSE 1.1 mph 5.8 mph 75 % 0.00 in
21:55 71.5 °F 63.5 °F 29.88 in SSW 1.1 mph 3.5 mph 76 % 0.00 in
22:00 71.5 °F 63.5 °F 29.88 in SSW 2.1 mph 4.6 mph 76 % 0.00 in
22:06 71.4 °F 63.4 °F 29.88 in South 2.2 mph 3.5 mph 76 % 0.00 in
22:11 71.3 °F 63.7 °F 29.88 in South 1.7 mph 3.5 mph 77 % 0.00 in
22:16 71.3 °F 63.7 °F 29.87 in SSW 0.7 mph 3.5 mph 77 % 0.00 in
22:21 71.2 °F 64.0 °F 29.88 in WSW 0.9 mph 3.5 mph 78 % 0.00 in
22:26 71.2 °F 64.0 °F 29.87 in WSW 0.8 mph 2.3 mph 78 % 0.00 in
22:31 71.2 °F 64.4 °F 29.87 in SSE 2.1 mph 9.2 mph 79 % 0.00 in
22:36 71.2 °F 64.4 °F 29.87 in SW 2.5 mph 3.5 mph 79 % 0.00 in
22:41 71.2 °F 64.7 °F 29.86 in SSW 0.4 mph 5.8 mph 80 % 0.00 in
22:46 71.2 °F 64.7 °F 29.85 in SSW 1.3 mph 2.0 mph 80 % 0.00 in
22:51 71.2 °F 64.7 °F 29.85 in Calm   3.5 mph 80 % 0.00 in
22:57 71.3 °F 64.8 °F 29.85 in Calm   2.3 mph 80 % 0.00 in
23:02 71.3 °F 64.4 °F 29.85 in WSW 1.9 mph 3.5 mph 79 % 0.00 in
23:07 71.4 °F 64.9 °F 29.85 in WSW 0.6 mph 3.5 mph 80 % 0.00 in
23:12 71.4 °F 64.5 °F 29.85 in ESE 1.1 mph 3.5 mph 79 % 0.00 in
23:17 71.5 °F 64.6 °F 29.85 in SW 0.7 mph 3.5 mph 79 % 0.00 in
23:22 71.5 °F 64.6 °F 29.85 in SW 1.0 mph 2.3 mph 79 % 0.00 in
23:27 71.5 °F 64.6 °F 29.84 in SW 3.9 mph 6.0 mph 79 % 0.00 in
23:32 71.6 °F 64.4 °F 29.83 in West 0.6 mph 3.0 mph 78 % 0.00 in
23:37 71.7 °F 64.5 °F 29.83 in SSW 1.7 mph 8.0 mph 78 % 0.00 in
23:42 71.8 °F 64.2 °F 29.83 in SSW 2.0 mph 4.0 mph 77 % 0.00 in
23:48 71.9 °F 63.9 °F 29.83 in SSW 2.9 mph 3.5 mph 76 % 0.00 in
23:53 72.1 °F 63.7 °F 29.83 in WSW 2.8 mph 11.0 mph 75 % 0.00 in
23:58 72.4 °F 63.6 °F 29.83 in WSW 0.9 mph 10.4 mph 74 % 0.00 in
Crab Meadow Weather
Compliments of Weather Underground - 3 mb

Script developed by  Jim McMurry - jmcmurry@mwt.net Adapted for the template by  Wim van der Kuil - Leuven-Template.eu

One Inch of Rain: One inch of rain over one square mile equals to 17.4 million gallons of water.